Starlink 31553

operational
NORAD ID: 59363 Int'l Des: 2024-060 Owner: SPXS Country: US Constellation: starlink
LEOCIRCULAR

About Starlink 31553

Description loading...

Live Position

Loading 3D Globe...

Upcoming Passes

Altitude History

Altitude vs Time

uPlot chart will show altitude changes over time

Two-Line Element Set

1 59363U 24060R 25259.11689675 .00001666 00000-0 70081-4 0 9993
2 59363 43.0069 158.8625 0002290 260.3080 99.7513 15.27577173 83445
Epoch: Sep 16, 2025 • Age: 17 hours

Current Status

Altitude 490.5 km
Velocity 7.62 km/s
Sub-Earth Point -31.80°S, 87.79°E
Launch Date Mar 31, 2024
Age 1.4 years
Type internet

Technical Details

Classification Payload
Mass 730.00 kg
Dry Mass 700.00 kg
Total Mass 730.00 kg
Length 0.30 m
Diameter 4.10 m
Span 29.00 m
Shape Box + pan
Manufacturer SPXS
Bus Type Starlink V2M
Phase Status In Orbit
Owner/State SPXS/US

Large Constellations

Loading constellations...